GWILZ FQBR-FIMP

Flight info

Callsign GWILZ
Flight time 2h 50m
Altitude 45000
Route ANVOV1A ETBER UW17 ESVEB UT516 IMKIB DCT DOBAR UA400 RASMA RASMA2E
Aircraft C750/M-SBDE3FGHRWXY/S

Departure

Time 2026-04-20 16:24
Airport Beira International Airport (FQBR)

Arrival

Time 2026-04-20 19:14
Airport Sir Seewoosagur Ramgoolam International Airport (FIMP)
Time Latitude Longitude Altitude Speed Heading
2026-04-20 16:16 -19.79793 34.90296 39 ft 0 kts 204°
2026-04-20 16:19 -19.79794 34.90296 -50 ft 1 kts 204°
2026-04-20 16:19 -19.79802 34.90292 39 ft 2 kts 205°
2026-04-20 16:20 -19.79812 34.90264 39 ft 7 kts 277°
2026-04-20 16:20 -19.79798 34.90206 38 ft 8 kts 287°
2026-04-20 16:20 -19.79764 34.90178 38 ft 6 kts 17°
2026-04-20 16:20 -19.79739 34.90170 38 ft 7 kts 306°
2026-04-20 16:21 -19.79720 34.90100 38 ft 13 kts 284°
2026-04-20 16:21 -19.79696 34.89996 38 ft 14 kts 284°
2026-04-20 16:21 -19.79671 34.89900 38 ft 13 kts 285°
2026-04-20 16:21 -19.79648 34.89808 38 ft 12 kts 285°
2026-04-20 16:22 -19.79623 34.89724 38 ft 11 kts 320°
2026-04-20 16:22 -19.79551 34.89698 38 ft 11 kts 344°
2026-04-20 16:22 -19.79480 34.89677 38 ft 11 kts 345°
2026-04-20 16:22 -19.79406 34.89664 39 ft 10 kts
2026-04-20 16:23 -19.79374 34.89707 38 ft 8 kts 89°
2026-04-20 16:23 -19.79388 34.89761 38 ft 5 kts 105°
2026-04-20 16:23 -19.79388 34.89763 38 ft 0 kts 105°
2026-04-20 16:23 -19.79402 34.89818 38 ft 34 kts 104°
2026-04-20 16:24 -19.79559 34.90440 38 ft 133 kts 105°
2026-04-20 16:24 -19.79828 34.91481 482 ft 145 kts 106°
2026-04-20 16:24 -19.80139 34.92544 1044 ft 160 kts 106°
2026-04-20 16:24 -19.80630 34.93698 1483 ft 184 kts 112°
2026-04-20 16:25 -19.81159 34.95036 1904 ft 209 kts 109°
2026-04-20 16:25 -19.81759 34.96462 2534 ft 216 kts 114°
2026-04-20 16:25 -19.82468 34.97908 3015 ft 231 kts 116°
2026-04-20 16:25 -19.83275 34.99518 3086 ft 260 kts 116°
2026-04-20 16:26 -19.84127 35.01254 3493 ft 268 kts 115°
2026-04-20 16:26 -19.84978 35.03007 4172 ft 269 kts 115°
2026-04-20 16:26 -19.85849 35.04799 4852 ft 275 kts 116°
2026-04-20 16:26 -19.86721 35.06574 5171 ft 263 kts 116°
2026-04-20 16:27 -19.87576 35.08324 4877 ft 269 kts 115°
2026-04-20 16:27 -19.88415 35.10061 4998 ft 271 kts 115°
2026-04-20 16:27 -19.89304 35.11886 4896 ft 276 kts 116°
2026-04-20 16:27 -19.90200 35.13710 4810 ft 285 kts 115°
2026-04-20 16:28 -19.91130 35.15618 5366 ft 290 kts 116°
2026-04-20 16:28 -19.92027 35.17459 6588 ft 278 kts 116°
2026-04-20 16:28 -19.92928 35.19311 7394 ft 284 kts 116°
2026-04-20 16:28 -19.93834 35.21174 8422 ft 284 kts 116°
2026-04-20 16:29 -19.94744 35.23044 9444 ft 286 kts 117°
2026-04-20 16:29 -19.95654 35.24914 10294 ft 291 kts 117°
2026-04-20 16:29 -19.96626 35.26927 10583 ft 315 kts 116°
2026-04-20 16:29 -19.97502 35.29096 11208 ft 320 kts 113°
2026-04-20 16:30 -19.98423 35.31215 12030 ft 322 kts 115°
2026-04-20 16:30 -19.99386 35.33399 12772 ft 327 kts 114°
2026-04-20 16:30 -20.00316 35.35618 13528 ft 331 kts 114°
2026-04-20 16:30 -20.01251 35.37880 14222 ft 335 kts 114°
2026-04-20 16:31 -20.02208 35.40150 14917 ft 338 kts 114°
2026-04-20 16:31 -20.03179 35.42435 15610 ft 341 kts 114°
2026-04-20 16:31 -20.04153 35.44747 16311 ft 344 kts 114°
2026-04-20 16:31 -20.05134 35.47087 17037 ft 348 kts 114°
2026-04-20 16:32 -20.06124 35.49445 17767 ft 351 kts 114°
2026-04-20 16:32 -20.07130 35.51832 18486 ft 355 kts 114°
2026-04-20 16:32 -20.08148 35.54252 19087 ft 361 kts 114°
2026-04-20 16:32 -20.09179 35.56710 19706 ft 366 kts 114°
2026-04-20 16:33 -20.10224 35.59200 20331 ft 372 kts 114°
2026-04-20 16:33 -20.11274 35.61706 20952 ft 377 kts 114°
2026-04-20 16:33 -20.11981 35.64400 21409 ft 386 kts 95°
2026-04-20 16:33 -20.11724 35.67242 22085 ft 388 kts 75°
2026-04-20 16:34 -20.10564 35.69832 22691 ft 391 kts 54°
2026-04-20 16:34 -20.08615 35.71845 23326 ft 394 kts 33°
2026-04-20 16:34 -20.06198 35.73220 23946 ft 394 kts 25°
2026-04-20 16:34 -20.03693 35.74461 24510 ft 399 kts 23°
2026-04-20 16:35 -20.01159 35.75711 25052 ft 404 kts 24°
2026-04-20 16:35 -19.98619 35.77022 25613 ft 408 kts 25°
2026-04-20 16:35 -19.96048 35.78363 26164 ft 413 kts 24°
2026-04-20 16:35 -19.93445 35.79687 26727 ft 417 kts 24°
2026-04-20 16:36 -19.90805 35.81018 27273 ft 422 kts 24°
2026-04-20 16:36 -19.88150 35.82372 27839 ft 426 kts 24°
2026-04-20 16:36 -19.85468 35.83750 28411 ft 430 kts 24°
2026-04-20 16:36 -19.82761 35.85132 28959 ft 434 kts 24°
2026-04-20 16:37 -19.80011 35.86527 29496 ft 438 kts 24°
2026-04-20 16:37 -19.77253 35.87930 30028 ft 442 kts 24°
2026-04-20 16:37 -19.74466 35.89352 30482 ft 446 kts 24°
2026-04-20 16:37 -19.71789 35.90972 30835 ft 453 kts 33°
2026-04-20 16:38 -19.69328 35.93145 31312 ft 456 kts 43°
2026-04-20 16:38 -19.67287 35.95684 31729 ft 461 kts 53°
2026-04-20 16:38 -19.65652 35.98619 32144 ft 465 kts 64°
2026-04-20 16:38 -19.64514 36.01836 32551 ft 468 kts 75°
2026-04-20 16:39 -19.63901 36.05235 32950 ft 471 kts 83°
2026-04-20 16:39 -19.63471 36.08697 33358 ft 475 kts 83°
2026-04-20 16:39 -19.63029 36.12186 33740 ft 479 kts 83°
2026-04-20 16:39 -19.62574 36.15703 34105 ft 483 kts 83°
2026-04-20 16:40 -19.62121 36.19238 34478 ft 485 kts 83°
2026-04-20 16:40 -19.61672 36.22778 35035 ft 483 kts 83°
2026-04-20 16:40 -19.61221 36.26301 35542 ft 482 kts 83°
2026-04-20 16:40 -19.60767 36.29826 36030 ft 482 kts 83°
2026-04-20 16:41 -19.60314 36.33339 36555 ft 481 kts 83°
2026-04-20 16:41 -19.59863 36.36856 37068 ft 481 kts 83°
2026-04-20 16:41 -19.59411 36.40360 37598 ft 480 kts 84°
2026-04-20 16:41 -19.58957 36.43870 38135 ft 480 kts 84°
2026-04-20 16:42 -19.58503 36.47373 38662 ft 479 kts 84°
2026-04-20 16:42 -19.58050 36.50873 39123 ft 478 kts 84°
2026-04-20 16:42 -19.57598 36.54357 39608 ft 477 kts 83°
2026-04-20 16:42 -19.57145 36.57837 40100 ft 475 kts 83°
2026-04-20 16:43 -19.56694 36.61306 40586 ft 474 kts 83°
2026-04-20 16:43 -19.56243 36.64765 41066 ft 473 kts 83°
2026-04-20 16:43 -19.55794 36.68208 41529 ft 472 kts 83°
2026-04-20 16:43 -19.55348 36.71612 41978 ft 470 kts 83°
2026-04-20 16:44 -19.54892 36.75093 42418 ft 469 kts 83°
2026-04-20 16:44 -19.54447 36.78477 42842 ft 468 kts 83°
2026-04-20 16:44 -19.53997 36.81889 43243 ft 468 kts 82°
2026-04-20 16:44 -19.53547 36.85303 43638 ft 467 kts 82°
2026-04-20 16:45 -19.53097 36.88713 44030 ft 466 kts 82°
2026-04-20 16:45 -19.52648 36.92108 44398 ft 465 kts 82°
2026-04-20 16:45 -19.52199 36.95496 44726 ft 464 kts 82°
2026-04-20 16:45 -19.51749 36.98885 44971 ft 464 kts 82°
2026-04-20 16:46 -19.50834 37.05768 44956 ft 478 kts 82°
2026-04-20 16:46 -19.49890 37.12847 44974 ft 490 kts 82°
2026-04-20 16:47 -19.48922 37.20085 44979 ft 502 kts 82°
2026-04-20 16:47 -19.47926 37.27500 44978 ft 513 kts 82°
2026-04-20 16:48 -19.46911 37.35046 44979 ft 521 kts 82°
2026-04-20 16:48 -19.45879 37.42688 44976 ft 527 kts 82°
2026-04-20 16:49 -19.44839 37.50363 44977 ft 532 kts 82°
2026-04-20 16:49 -19.43782 37.58138 44979 ft 535 kts 82°
2026-04-20 16:50 -19.42716 37.65954 44975 ft 537 kts 82°
2026-04-20 16:50 -19.41642 37.73806 44980 ft 539 kts 82°
2026-04-20 16:51 -19.40563 37.81663 44985 ft 539 kts 82°
2026-04-20 16:51 -19.39483 37.89530 44984 ft 539 kts 82°
2026-04-20 16:52 -19.38403 37.97386 44987 ft 539 kts 82°
2026-04-20 16:52 -19.37317 38.05253 44981 ft 539 kts 82°
2026-04-20 16:53 -19.36230 38.13103 44985 ft 539 kts 82°
2026-04-20 16:53 -19.35137 38.20968 44988 ft 539 kts 82°
2026-04-20 16:54 -19.34042 38.28826 44989 ft 540 kts 82°
2026-04-20 16:54 -19.32950 38.36637 44989 ft 540 kts 82°
2026-04-20 16:55 -19.31847 38.44499 44990 ft 540 kts 82°
2026-04-20 16:55 -19.30740 38.52367 44993 ft 540 kts 82°
2026-04-20 16:56 -19.29631 38.60222 44993 ft 540 kts 81°
2026-04-20 16:56 -19.28520 38.68067 44977 ft 534 kts 83°
2026-04-20 16:57 -19.27421 38.75811 44987 ft 531 kts 83°
2026-04-20 16:57 -19.26317 38.83552 44983 ft 531 kts 83°
2026-04-20 16:58 -19.25213 38.91280 44985 ft 531 kts 83°
2026-04-20 16:58 -19.24105 38.99005 44996 ft 530 kts 83°
2026-04-20 16:59 -19.23184 39.05412 44991 ft 528 kts 83°
2026-04-20 16:59 -19.21891 39.14383 44983 ft 527 kts 83°
2026-04-20 17:00 -19.20236 39.25816 44985 ft 525 kts 83°
2026-04-20 17:01 -19.19125 39.33455 44982 ft 524 kts 83°
2026-04-20 17:01 -19.18196 39.39832 44989 ft 524 kts 83°
2026-04-20 17:02 -19.16903 39.48679 44987 ft 523 kts 83°
2026-04-20 17:02 -19.15790 39.56273 44993 ft 522 kts 83°
2026-04-20 17:03 -19.14674 39.63863 44991 ft 521 kts 83°
2026-04-20 17:03 -19.13556 39.71439 44992 ft 521 kts 83°
2026-04-20 17:04 -19.12628 39.77719 44997 ft 520 kts 82°
2026-04-20 17:04 -19.11507 39.85276 44996 ft 520 kts 82°
2026-04-20 17:05 -19.10383 39.92836 44991 ft 520 kts 82°
2026-04-20 17:05 -19.09076 40.01603 44991 ft 519 kts 82°
2026-04-20 17:06 -19.08130 40.07923 44993 ft 519 kts 82°
2026-04-20 17:06 -19.07000 40.15462 44996 ft 519 kts 82°
2026-04-20 17:07 -19.05874 40.22949 44995 ft 519 kts 82°
2026-04-20 17:07 -19.04738 40.30476 44996 ft 519 kts 82°
2026-04-20 17:08 -19.03599 40.38008 44995 ft 518 kts 82°
2026-04-20 17:08 -19.02458 40.45531 44997 ft 518 kts 82°
2026-04-20 17:09 -19.01314 40.53050 44998 ft 518 kts 82°
2026-04-20 17:09 -19.00169 40.60569 45001 ft 518 kts 82°
2026-04-20 17:10 -18.99573 40.68132 44995 ft 516 kts 89°
2026-04-20 17:10 -18.99145 40.75695 45003 ft 516 kts 87°
2026-04-20 17:11 -18.98632 40.83213 45006 ft 515 kts 88°
2026-04-20 17:11 -18.98182 40.90769 45007 ft 515 kts 88°
2026-04-20 17:12 -18.97677 40.98336 44998 ft 515 kts 88°
2026-04-20 17:12 -18.97206 41.05889 45000 ft 515 kts 88°
2026-04-20 17:13 -18.96708 41.13442 45000 ft 515 kts 88°
2026-04-20 17:13 -18.96221 41.21001 45002 ft 515 kts 88°
2026-04-20 17:14 -18.95723 41.28552 45002 ft 515 kts 88°
2026-04-20 17:14 -18.95231 41.36050 45005 ft 515 kts 88°
2026-04-20 17:15 -18.94729 41.43595 45003 ft 515 kts 88°
2026-04-20 17:15 -18.94225 41.51155 45004 ft 515 kts 88°
2026-04-20 17:16 -18.93718 41.58690 45003 ft 515 kts 88°
2026-04-20 17:16 -18.93208 41.66239 45003 ft 515 kts 88°
2026-04-20 17:17 -18.92695 41.73784 44996 ft 515 kts 88°
2026-04-20 17:17 -18.92179 41.81325 44996 ft 515 kts 88°
2026-04-20 17:18 -18.91660 41.88866 44995 ft 515 kts 88°
2026-04-20 17:18 -18.91139 41.96400 45002 ft 514 kts 88°
2026-04-20 17:19 -18.90615 42.03930 44999 ft 514 kts 87°
2026-04-20 17:19 -18.90090 42.11417 44995 ft 514 kts 87°
2026-04-20 17:20 -18.89557 42.18989 44995 ft 514 kts 87°
2026-04-20 17:20 -18.89027 42.26471 44996 ft 514 kts 87°
2026-04-20 17:21 -18.88491 42.34001 44994 ft 514 kts 87°
2026-04-20 17:21 -18.87951 42.41536 44995 ft 514 kts 87°
2026-04-20 17:22 -18.87409 42.49053 44994 ft 514 kts 87°
2026-04-20 17:22 -18.86864 42.56574 44992 ft 514 kts 87°
2026-04-20 17:23 -18.86316 42.64095 44990 ft 513 kts 87°
2026-04-20 17:23 -18.85766 42.71606 44983 ft 514 kts 87°
2026-04-20 17:24 -18.85212 42.79127 44986 ft 514 kts 87°
2026-04-20 17:24 -18.84654 42.86649 44989 ft 514 kts 87°
2026-04-20 17:25 -18.84094 42.94167 44989 ft 514 kts 87°
2026-04-20 17:25 -18.83534 43.01642 44983 ft 514 kts 88°
2026-04-20 17:26 -18.82968 43.09166 44988 ft 515 kts 88°
2026-04-20 17:26 -18.82397 43.16703 44992 ft 515 kts 88°
2026-04-20 17:27 -18.81824 43.24229 44989 ft 515 kts 88°
2026-04-20 17:27 -18.81247 43.31777 44987 ft 515 kts 88°
2026-04-20 17:28 -18.80666 43.39318 44989 ft 516 kts 88°
2026-04-20 17:28 -18.80083 43.46868 44989 ft 516 kts 88°
2026-04-20 17:29 -18.79496 43.54416 44992 ft 516 kts 88°
2026-04-20 17:29 -18.78905 43.61970 44988 ft 517 kts 88°
2026-04-20 17:30 -18.78312 43.69525 44980 ft 517 kts 88°
2026-04-20 17:30 -18.77713 43.77100 44986 ft 517 kts 88°
2026-04-20 17:31 -18.77113 43.84672 44984 ft 518 kts 88°
2026-04-20 17:31 -18.76511 43.92205 44984 ft 518 kts 88°
2026-04-20 17:32 -18.75903 43.99798 44990 ft 518 kts 88°
2026-04-20 17:32 -18.75290 44.07393 44983 ft 519 kts 88°
2026-04-20 17:33 -18.74676 44.14981 44983 ft 519 kts 88°
2026-04-20 17:33 -18.74061 44.22523 44987 ft 520 kts 88°
2026-04-20 17:34 -18.73439 44.30137 44991 ft 520 kts 88°
2026-04-20 17:34 -18.72812 44.37752 44992 ft 521 kts 88°
2026-04-20 17:35 -18.72183 44.45371 44995 ft 521 kts 88°
2026-04-20 17:35 -18.71549 44.53004 44998 ft 522 kts 88°
2026-04-20 17:36 -18.70913 44.60623 45006 ft 522 kts 88°
2026-04-20 17:36 -18.70276 44.68217 45005 ft 523 kts 88°
2026-04-20 17:37 -18.69631 44.75861 45010 ft 523 kts 88°
2026-04-20 17:37 -18.68984 44.83504 45012 ft 523 kts 88°
2026-04-20 17:38 -18.68332 44.91162 45011 ft 524 kts 88°
2026-04-20 17:38 -18.67677 44.98822 45008 ft 524 kts 88°
2026-04-20 17:39 -18.67018 45.06486 45013 ft 524 kts 88°
2026-04-20 17:39 -18.66360 45.14108 45016 ft 525 kts 88°
2026-04-20 17:40 -18.65696 45.21766 45017 ft 525 kts 88°
2026-04-20 17:40 -18.65026 45.29445 45026 ft 525 kts 88°
2026-04-20 17:41 -18.64356 45.37102 45039 ft 525 kts 88°
2026-04-20 17:41 -18.63679 45.44786 45053 ft 526 kts 88°
2026-04-20 17:42 -18.63002 45.52455 45064 ft 526 kts 88°
2026-04-20 17:42 -18.62322 45.60103 45074 ft 526 kts 88°
2026-04-20 17:43 -18.61637 45.67775 45081 ft 525 kts 88°
2026-04-20 17:43 -18.60949 45.75454 45090 ft 526 kts 88°
2026-04-20 17:44 -18.60258 45.83117 45095 ft 526 kts 88°
2026-04-20 17:44 -18.59565 45.90794 45104 ft 525 kts 88°
2026-04-20 17:45 -18.58867 45.98464 45105 ft 525 kts 88°
2026-04-20 17:45 -18.58167 46.06134 45111 ft 525 kts 88°
2026-04-20 17:46 -18.57464 46.13805 45118 ft 525 kts 88°
2026-04-20 17:46 -18.56758 46.21470 45122 ft 525 kts 88°
2026-04-20 17:47 -18.56047 46.29145 45130 ft 525 kts 88°
2026-04-20 17:47 -18.55339 46.36762 45139 ft 525 kts 88°
2026-04-20 17:48 -18.54625 46.44418 45150 ft 525 kts 88°
2026-04-20 17:48 -18.54606 46.52048 45137 ft 517 kts 101°
2026-04-20 17:49 -18.56376 46.59318 45172 ft 510 kts 111°
2026-04-20 17:49 -18.58412 46.66499 45180 ft 512 kts 108°
2026-04-20 17:50 -18.59843 46.72553 45183 ft 512 kts 109°
2026-04-20 17:50 -18.62130 46.80936 45199 ft 512 kts 108°
2026-04-20 17:51 -18.63944 46.88210 45202 ft 512 kts 109°
2026-04-20 17:51 -18.65860 46.95433 45213 ft 512 kts 109°
2026-04-20 17:52 -18.67394 47.01467 45220 ft 512 kts 108°
2026-04-20 17:52 -18.69271 47.08713 45225 ft 512 kts 109°
2026-04-20 17:53 -18.71133 47.15953 45234 ft 512 kts 109°
2026-04-20 17:53 -18.72997 47.23207 45239 ft 512 kts 109°
2026-04-20 17:54 -18.74858 47.30449 45244 ft 512 kts 109°
2026-04-20 17:54 -18.76714 47.37704 45245 ft 512 kts 109°
2026-04-20 17:55 -18.78569 47.44948 45248 ft 511 kts 109°
2026-04-20 17:55 -18.80395 47.52153 45241 ft 512 kts 107°
2026-04-20 17:56 -18.81948 47.59486 45238 ft 512 kts 106°
2026-04-20 17:56 -18.83510 47.66821 45244 ft 512 kts 106°
2026-04-20 17:57 -18.85059 47.74153 45248 ft 512 kts 106°
2026-04-20 17:57 -18.86609 47.81492 45249 ft 512 kts 106°
2026-04-20 17:58 -18.88156 47.88827 45240 ft 512 kts 106°
2026-04-20 17:58 -18.89700 47.96174 45237 ft 512 kts 106°
2026-04-20 17:59 -18.91244 48.03523 45227 ft 512 kts 106°
2026-04-20 17:59 -18.92778 48.10856 45225 ft 512 kts 106°
2026-04-20 18:00 -18.94304 48.18151 45218 ft 511 kts 106°
2026-04-20 18:00 -18.95754 48.25501 45202 ft 512 kts 104°
2026-04-20 18:01 -18.97115 48.32881 45192 ft 511 kts 104°
2026-04-20 18:01 -18.98460 48.40271 45182 ft 511 kts 104°
2026-04-20 18:02 -18.99801 48.47647 45173 ft 511 kts 104°
2026-04-20 18:02 -19.01144 48.55029 45168 ft 511 kts 104°
2026-04-20 18:03 -19.02477 48.62402 45156 ft 511 kts 104°
2026-04-20 18:03 -19.03813 48.69784 45148 ft 511 kts 104°
2026-04-20 18:04 -19.05140 48.77157 45133 ft 511 kts 104°
2026-04-20 18:04 -19.06462 48.84494 45122 ft 511 kts 104°
2026-04-20 18:05 -19.08446 48.95566 45104 ft 511 kts 104°
2026-04-20 18:05 -19.09764 49.02935 45096 ft 511 kts 104°
2026-04-20 18:06 -19.11081 49.10319 45105 ft 510 kts 104°
2026-04-20 18:06 -19.12394 49.17696 45093 ft 510 kts 103°
2026-04-20 18:07 -19.13703 49.25075 45095 ft 510 kts 103°
2026-04-20 18:07 -19.15009 49.32445 45096 ft 510 kts 103°
2026-04-20 18:08 -19.16312 49.39822 45091 ft 510 kts 103°
2026-04-20 18:08 -19.17612 49.47197 45091 ft 510 kts 103°
2026-04-20 18:09 -19.18908 49.54575 45093 ft 510 kts 103°
2026-04-20 18:09 -19.20202 49.61950 45091 ft 510 kts 103°
2026-04-20 18:10 -19.21494 49.69333 45093 ft 510 kts 103°
2026-04-20 18:10 -19.22774 49.76670 45092 ft 510 kts 103°
2026-04-20 18:11 -19.24061 49.84060 45092 ft 510 kts 103°
2026-04-20 18:11 -19.25344 49.91451 45093 ft 511 kts 103°
2026-04-20 18:12 -19.26625 49.98844 45092 ft 511 kts 103°
2026-04-20 18:12 -19.27905 50.06249 45093 ft 511 kts 103°
2026-04-20 18:13 -19.29182 50.13656 45093 ft 512 kts 102°
2026-04-20 18:13 -19.30454 50.21070 45094 ft 512 kts 102°
2026-04-20 18:14 -19.31727 50.28496 45089 ft 512 kts 102°
2026-04-20 18:14 -19.32988 50.35879 45091 ft 513 kts 102°
2026-04-20 18:15 -19.34255 50.43312 45091 ft 513 kts 102°
2026-04-20 18:15 -19.35522 50.50761 45090 ft 514 kts 102°
2026-04-20 18:16 -19.36786 50.58216 45091 ft 514 kts 102°
2026-04-20 18:16 -19.38048 50.65675 45088 ft 514 kts 102°
2026-04-20 18:17 -19.39307 50.73139 45091 ft 515 kts 102°
2026-04-20 18:17 -19.40563 50.80601 45088 ft 515 kts 102°
2026-04-20 18:18 -19.41820 50.88088 45088 ft 515 kts 102°
2026-04-20 18:18 -19.43072 50.95567 45087 ft 515 kts 102°
2026-04-20 18:19 -19.44312 51.02994 45087 ft 516 kts 102°
2026-04-20 18:19 -19.45559 51.10479 45090 ft 516 kts 102°
2026-04-20 18:20 -19.46802 51.17963 45084 ft 516 kts 102°
2026-04-20 18:20 -19.48043 51.25452 45087 ft 516 kts 102°
2026-04-20 18:21 -19.49281 51.32944 45082 ft 516 kts 102°
2026-04-20 18:21 -19.50515 51.40435 45082 ft 516 kts 102°
2026-04-20 18:22 -19.51748 51.47932 45084 ft 516 kts 102°
2026-04-20 18:22 -19.52976 51.55421 45085 ft 516 kts 102°
2026-04-20 18:23 -19.54203 51.62927 45077 ft 516 kts 102°
2026-04-20 18:23 -19.55417 51.70374 45081 ft 516 kts 102°
2026-04-20 18:24 -19.56637 51.77872 45081 ft 516 kts 102°
2026-04-20 18:24 -19.57853 51.85369 45086 ft 516 kts 102°
2026-04-20 18:25 -19.59066 51.92870 45077 ft 516 kts 102°
2026-04-20 18:25 -19.60278 52.00380 45082 ft 516 kts 102°
2026-04-20 18:26 -19.61487 52.07898 45085 ft 516 kts 102°
2026-04-20 18:26 -19.62685 52.15363 45075 ft 517 kts 102°
2026-04-20 18:27 -19.63886 52.22869 45077 ft 517 kts 102°
2026-04-20 18:27 -19.65085 52.30386 45081 ft 517 kts 102°
2026-04-20 18:28 -19.66282 52.37909 45074 ft 517 kts 102°
2026-04-20 18:28 -19.67476 52.45436 45074 ft 517 kts 102°
2026-04-20 18:29 -19.68666 52.52952 45077 ft 517 kts 101°
2026-04-20 18:29 -19.69853 52.60477 45072 ft 517 kts 101°
2026-04-20 18:30 -19.71038 52.68006 45076 ft 517 kts 101°
2026-04-20 18:30 -19.72220 52.75535 45077 ft 517 kts 101°
2026-04-20 18:31 -19.73391 52.83021 45070 ft 517 kts 101°
2026-04-20 18:31 -19.74567 52.90555 45077 ft 517 kts 101°
2026-04-20 18:32 -19.75740 52.98094 45076 ft 517 kts 101°
2026-04-20 18:32 -19.76909 53.05627 45074 ft 518 kts 101°
2026-04-20 18:33 -19.78075 53.13167 45071 ft 517 kts 101°
2026-04-20 18:33 -19.79239 53.20710 45070 ft 518 kts 101°
2026-04-20 18:34 -19.80399 53.28253 45070 ft 517 kts 101°
2026-04-20 18:34 -19.81556 53.35797 45072 ft 517 kts 101°
2026-04-20 18:35 -19.82711 53.43350 45072 ft 518 kts 101°
2026-04-20 18:35 -19.83861 53.50887 45073 ft 518 kts 101°
2026-04-20 18:36 -19.85010 53.58445 45074 ft 518 kts 101°
2026-04-20 18:36 -19.86154 53.65987 45076 ft 518 kts 101°
2026-04-20 18:37 -19.87296 53.73542 45072 ft 518 kts 101°
2026-04-20 18:37 -19.88434 53.81093 45072 ft 518 kts 101°
2026-04-20 18:38 -19.89562 53.88598 45074 ft 518 kts 101°
2026-04-20 18:38 -19.90694 53.96154 45077 ft 518 kts 101°
2026-04-20 18:39 -19.91824 54.03717 45077 ft 518 kts 101°
2026-04-20 18:39 -19.92952 54.11288 45072 ft 518 kts 101°
2026-04-20 18:40 -19.93886 54.17579 45064 ft 518 kts 101°
2026-04-20 18:40 -19.95017 54.25214 45069 ft 518 kts 101°
2026-04-20 18:41 -19.95562 54.28910 45062 ft 507 kts 101°
2026-04-20 18:41 -19.96103 54.32582 45054 ft 500 kts 101°
2026-04-20 18:41 -19.97176 54.39852 45054 ft 499 kts 101°
2026-04-20 18:42 -19.98251 54.47185 45068 ft 504 kts 101°
2026-04-20 18:42 -19.99327 54.54537 45071 ft 503 kts 101°
2026-04-20 18:43 -20.00402 54.61900 45072 ft 503 kts 101°
2026-04-20 18:43 -20.01464 54.69206 45074 ft 503 kts 101°
2026-04-20 18:44 -20.02533 54.76566 45075 ft 503 kts 101°
2026-04-20 18:44 -20.03597 54.83930 45075 ft 504 kts 101°
2026-04-20 18:45 -20.04662 54.91308 45075 ft 504 kts 101°
2026-04-20 18:45 -20.05720 54.98671 45073 ft 504 kts 101°
2026-04-20 18:46 -20.06778 55.06042 45073 ft 504 kts 101°
2026-04-20 18:46 -20.07828 55.13403 44695 ft 498 kts 101°
2026-04-20 18:47 -20.08344 55.17028 43976 ft 491 kts 101°
2026-04-20 18:47 -20.08850 55.20585 43331 ft 480 kts 101°
2026-04-20 18:47 -20.09343 55.24055 42712 ft 470 kts 101°
2026-04-20 18:47 -20.09826 55.27461 42103 ft 461 kts 101°
2026-04-20 18:48 -20.10294 55.30759 41514 ft 453 kts 101°
2026-04-20 18:48 -20.10761 55.34057 40924 ft 450 kts 101°
2026-04-20 18:48 -20.11232 55.37385 40331 ft 449 kts 101°
2026-04-20 18:48 -20.11696 55.40673 39748 ft 450 kts 101°
2026-04-20 18:49 -20.12164 55.43992 39156 ft 455 kts 101°
2026-04-20 18:49 -20.12631 55.47308 38524 ft 461 kts 101°
2026-04-20 18:49 -20.13107 55.50696 37892 ft 464 kts 100°
2026-04-20 18:49 -20.13580 55.54102 37287 ft 467 kts 100°
2026-04-20 18:50 -20.14030 55.57536 36662 ft 468 kts 99°
2026-04-20 18:50 -20.14465 55.60965 36046 ft 468 kts 99°
2026-04-20 18:50 -20.14915 55.64388 35431 ft 467 kts 100°
2026-04-20 18:50 -20.15375 55.67810 34812 ft 467 kts 100°
2026-04-20 18:51 -20.15827 55.71235 34193 ft 466 kts 99°
2026-04-20 18:51 -20.16266 55.74633 33549 ft 465 kts 99°
2026-04-20 18:51 -20.16712 55.78059 32934 ft 467 kts 100°
2026-04-20 18:51 -20.17158 55.81445 32327 ft 469 kts 100°
2026-04-20 18:52 -20.17611 55.84899 31703 ft 472 kts 100°
2026-04-20 18:52 -20.18061 55.88370 31083 ft 475 kts 100°
2026-04-20 18:52 -20.18512 55.91854 30457 ft 477 kts 100°
2026-04-20 18:52 -20.18966 55.95345 29787 ft 474 kts 100°
2026-04-20 18:53 -20.19413 55.98795 29171 ft 467 kts 100°
2026-04-20 18:53 -20.19851 56.02196 28554 ft 462 kts 100°
2026-04-20 18:53 -20.20042 56.05600 27942 ft 459 kts 92°
2026-04-20 18:53 -20.20028 56.08997 27349 ft 457 kts 91°
2026-04-20 18:54 -20.20001 56.12370 26736 ft 453 kts 92°
2026-04-20 18:54 -20.20018 56.15707 26161 ft 448 kts 92°
2026-04-20 18:54 -20.20044 56.18911 26053 ft 416 kts 92°
2026-04-20 18:54 -20.20044 56.21872 26043 ft 387 kts 92°
2026-04-20 18:55 -20.20041 56.24721 26015 ft 388 kts 92°
2026-04-20 18:55 -20.20052 56.27655 26012 ft 402 kts 92°
2026-04-20 18:55 -20.20060 56.30650 26020 ft 404 kts 92°
2026-04-20 18:55 -20.20060 56.33647 26029 ft 405 kts 92°
2026-04-20 18:56 -20.20059 56.36602 25871 ft 399 kts 92°
2026-04-20 18:56 -20.20062 56.39583 24366 ft 404 kts 92°
2026-04-20 18:56 -20.20071 56.42659 22194 ft 428 kts 92°
2026-04-20 18:56 -20.20071 56.45766 21147 ft 417 kts 91°
2026-04-20 18:57 -20.20065 56.48775 20038 ft 408 kts 91°
2026-04-20 18:57 -20.20067 56.51796 19642 ft 403 kts 92°
2026-04-20 18:57 -20.20071 56.54792 19158 ft 404 kts 92°
2026-04-20 18:57 -20.20070 56.57767 18623 ft 399 kts 91°
2026-04-20 18:58 -20.20066 56.60703 18062 ft 393 kts 91°
2026-04-20 18:58 -20.20064 56.63589 17539 ft 388 kts 91°
2026-04-20 18:58 -20.20064 56.66450 17033 ft 385 kts 91°
2026-04-20 18:58 -20.20062 56.69289 16525 ft 381 kts 91°
2026-04-20 18:59 -20.20059 56.72098 16025 ft 378 kts 91°
2026-04-20 18:59 -20.20055 56.74884 15529 ft 375 kts 91°
2026-04-20 18:59 -20.20052 56.77661 15036 ft 372 kts 91°
2026-04-20 18:59 -20.20048 56.80371 14552 ft 369 kts 91°
2026-04-20 19:00 -20.20043 56.83085 14068 ft 366 kts 91°
2026-04-20 19:00 -20.20038 56.85784 13560 ft 362 kts 91°
2026-04-20 19:00 -20.20033 56.88448 13078 ft 359 kts 90°
2026-04-20 19:00 -20.20028 56.91105 12606 ft 357 kts 90°
2026-04-20 19:01 -20.20022 56.93732 12138 ft 355 kts 90°
2026-04-20 19:01 -20.20015 56.96357 11669 ft 352 kts 90°
2026-04-20 19:01 -20.20008 56.98935 11143 ft 340 kts 90°
2026-04-20 19:01 -20.20002 57.01373 10675 ft 320 kts 90°
2026-04-20 19:02 -20.19995 57.03673 10261 ft 302 kts 90°
2026-04-20 19:02 -20.19989 57.05824 9863 ft 287 kts 90°
2026-04-20 19:02 -20.19982 57.07907 9479 ft 277 kts 90°
2026-04-20 19:02 -20.19976 57.09936 9123 ft 273 kts 90°
2026-04-20 19:03 -20.19969 57.11960 8763 ft 273 kts 90°
2026-04-20 19:03 -20.19963 57.13977 8412 ft 273 kts 90°
2026-04-20 19:03 -20.19955 57.16003 8048 ft 273 kts 90°
2026-04-20 19:03 -20.19948 57.18026 7687 ft 271 kts 90°
2026-04-20 19:04 -20.19940 57.20026 7326 ft 269 kts 90°
2026-04-20 19:04 -20.19933 57.22017 6974 ft 268 kts 90°
2026-04-20 19:04 -20.19925 57.23995 6623 ft 266 kts 90°
2026-04-20 19:04 -20.19917 57.25902 6281 ft 254 kts 90°
2026-04-20 19:05 -20.20077 57.27674 5899 ft 234 kts 104°
2026-04-20 19:05 -20.20820 57.29171 5928 ft 230 kts 122°
2026-04-20 19:05 -20.21686 57.30468 5980 ft 241 kts 123°
2026-04-20 19:05 -20.22662 57.31931 5980 ft 242 kts 123°
2026-04-20 19:06 -20.23634 57.33394 5977 ft 243 kts 123°
2026-04-20 19:06 -20.24606 57.34859 5978 ft 243 kts 123°
2026-04-20 19:06 -20.25586 57.36333 5978 ft 242 kts 123°
2026-04-20 19:06 -20.26554 57.37788 5978 ft 234 kts 123°
2026-04-20 19:07 -20.27446 57.39127 5955 ft 211 kts 123°
2026-04-20 19:07 -20.28283 57.40378 5961 ft 208 kts 123°
2026-04-20 19:07 -20.29149 57.41652 5963 ft 215 kts 124°
2026-04-20 19:07 -20.30024 57.42936 5800 ft 208 kts 124°
2026-04-20 19:08 -20.30850 57.44147 5521 ft 198 kts 123°
2026-04-20 19:08 -20.32435 57.46491 4973 ft 194 kts 123°
2026-04-20 19:08 -20.33078 57.47738 4679 ft 189 kts 115°
2026-04-20 19:09 -20.33663 57.48959 4429 ft 185 kts 116°
2026-04-20 19:09 -20.34276 57.50164 4159 ft 186 kts 117°
2026-04-20 19:09 -20.34882 57.51407 3878 ft 186 kts 116°
2026-04-20 19:09 -20.35457 57.52606 3606 ft 177 kts 116°
2026-04-20 19:10 -20.35971 57.53676 3359 ft 168 kts 115°
2026-04-20 19:10 -20.36491 57.54758 3102 ft 161 kts 114°
2026-04-20 19:10 -20.36995 57.55807 2868 ft 158 kts 114°
2026-04-20 19:10 -20.37491 57.56839 2635 ft 155 kts 114°
2026-04-20 19:11 -20.37958 57.57805 2392 ft 139 kts 113°
2026-04-20 19:11 -20.38391 57.58706 2187 ft 134 kts 113°
2026-04-20 19:11 -20.38785 57.59526 2002 ft 120 kts 114°
2026-04-20 19:11 -20.39160 57.60306 1827 ft 118 kts 115°
2026-04-20 19:12 -20.39534 57.61087 1662 ft 119 kts 115°
2026-04-20 19:12 -20.39915 57.61890 1471 ft 123 kts 116°
2026-04-20 19:12 -20.40289 57.62720 1280 ft 126 kts 117°
2026-04-20 19:12 -20.40686 57.63540 1101 ft 120 kts 116°
2026-04-20 19:13 -20.41065 57.64342 907 ft 122 kts 117°
2026-04-20 19:13 -20.41452 57.65133 676 ft 120 kts 114°
2026-04-20 19:13 -20.41840 57.65934 513 ft 123 kts 115°
2026-04-20 19:13 -20.42233 57.66743 309 ft 124 kts 117°
2026-04-20 19:14 -20.42624 57.67542 178 ft 114 kts 116°
2026-04-20 19:14 -20.42937 57.68180 150 ft 80 kts 117°
2026-04-20 19:14 -20.43120 57.68562 140 ft 51 kts 117°
2026-04-20 19:14 -20.43268 57.68865 128 ft 42 kts 117°
2026-04-20 19:15 -20.43377 57.69087 121 ft 25 kts 117°
2026-04-20 19:15 -20.43460 57.69257 117 ft 26 kts 117°
2026-04-20 19:15 -20.43546 57.69363 115 ft 17 kts 194°
2026-04-20 19:15 -20.43628 57.69323 116 ft 9 kts 208°
2026-04-20 19:16 -20.43657 57.69293 117 ft 3 kts 251°
2026-04-20 19:16 -20.43657 57.69277 117 ft 2 kts 277°
2026-04-20 19:16 -20.43651 57.69259 117 ft 3 kts 295°
2026-04-20 19:16 -20.43641 57.69238 116 ft 4 kts 297°
2026-04-20 19:17 -20.43623 57.69202 118 ft 7 kts 297°
2026-04-20 19:17 -20.43600 57.69153 118 ft 9 kts 297°
2026-04-20 19:17 -20.43566 57.69084 122 ft 12 kts 297°
2026-04-20 19:17 -20.43523 57.68995 125 ft 15 kts 297°
2026-04-20 19:18 -20.43467 57.68881 127 ft 16 kts 297°
2026-04-20 19:18 -20.43426 57.68794 128 ft 12 kts 296°
2026-04-20 19:18 -20.43386 57.68712 133 ft 13 kts 297°
2026-04-20 19:18 -20.43353 57.68642 135 ft 8 kts 297°
2026-04-20 19:19 -20.43337 57.68586 137 ft 8 kts 258°
2026-04-20 19:19 -20.43377 57.68553 137 ft 8 kts 205°
2026-04-20 19:19 -20.43424 57.68564 136 ft 7 kts 108°
2026-04-20 19:19 -20.43447 57.68611 135 ft 4 kts 148°
2026-04-20 19:20 -20.43457 57.68607 135 ft 0 kts 221°
2026-04-20 19:20 -20.43465 57.68602 135 ft 2 kts 207°
2026-04-20 19:20 -20.43467 57.68601 135 ft 0 kts 207°